Morristown, NJ

10:30 AM EDT on June 22, 2017 (GMT -0400)
Morristown Municipal

Weather History for KMMU - July, 2013

Change the Weather History Date:

Sunday, July 28, 2013

  Actual Average Record
Temperature  
Mean Temperature 71 °F -  
Max Temperature 78 °F 85 °F 101 °F (1944)
Min Temperature 64 °F 63 °F 46 °F (1962)
Cooling Degree Days 6    
Growing Degree Days 21 (Base 50)    
Moisture  
Dew Point 65 °F    
Average Humidity 86    
Maximum Humidity 94    
Minimum Humidity 69    
Precipitation  
Precipitation 0.01 in - - ()
Sea Level Pressure  
Sea Level Pressure 29.97 in    
Wind  
Wind Speed 2 mph (SSE)    
Max Wind Speed 17 mph    
Max Gust Speed 24 mph    
Visibility 8 miles    
Events Rain , Thunderstorm    
Averages and records for this station are not official NWS values.
T = Trace of Precipitation, MM = Missing Value Source: NWS Daily Summary

Daily Weather History Graph

Daily Weather History Graph

Search for Another Location

Airport or City:

Trip Planner

Search our weather history database for the weather conditions in past years. The results will help you decide how hot, cold, wet, or windy it might be!

Date:

Astronomy

Jul. 28, 2013 Rise Set
Actual Time 5:50 AM EDT 8:17 PM EDT
Civil Twilight 5:19 AM EDT 8:48 PM EDT
Nautical Twilight 4:40 AM EDT 9:26 PM EDT
Astronomical Twilight 3:57 AM EDT 10:09 PM EDT
Moon 11:34 PM EDT (7/28) 12:33 PM EDT (7/28)
Length of Visible Light 15h 28m
Length of Day
14h 26m
Waning Gibbous, 61% of the Moon is Illuminated
Jul 28
Waning Gibbous
Jul 29
Last Quarter
Aug 6
New
Aug 14
First Quarter
Aug 20
Full

Hourly Weather History & Observations

Time (EDT) Temp. Dew Point Humidity Pressure Visibility Wind Dir Wind Speed Gust Speed Precip Events Conditions
12:15 AM 66.2 °F 62.6 °F 88% 29.98 in 10.0 mi Calm Calm - N/A   Clear
12:35 AM 66.2 °F 60.8 °F 83% 29.97 in 10.0 mi Calm Calm - N/A   Clear
12:55 AM 64.4 °F 60.8 °F 88% 29.97 in 10.0 mi Calm Calm - N/A   Clear
1:15 AM 64.4 °F 60.8 °F 88% 29.97 in 10.0 mi Calm Calm - N/A   Clear
1:35 AM 66.2 °F 62.6 °F 88% 29.97 in 10.0 mi Calm Calm - N/A   Clear
1:55 AM 66.2 °F 62.6 °F 88% 29.98 in 10.0 mi Calm Calm - N/A   Clear
2:15 AM 66.2 °F 62.6 °F 88% 29.97 in 10.0 mi Calm Calm - N/A   Clear
2:35 AM 64.4 °F 60.8 °F 88% 29.96 in 7.0 mi Calm Calm - N/A   Clear
2:55 AM 64.4 °F 60.8 °F 88% 29.96 in 10.0 mi WNW 3.5 mph - N/A   Clear
3:15 AM 64.4 °F 60.8 °F 88% 29.97 in 7.0 mi Calm Calm - N/A   Clear
3:35 AM 64.4 °F 60.8 °F 88% 29.97 in 7.0 mi Calm Calm - N/A   Clear
3:55 AM 64.4 °F 62.6 °F 94% 29.96 in 7.0 mi Calm Calm - N/A   Clear
4:15 AM 64.4 °F 62.6 °F 94% 29.96 in 5.0 mi Calm Calm - N/A   Scattered Clouds
4:35 AM 66.2 °F 62.6 °F 88% 29.96 in 10.0 mi Calm Calm - N/A   Overcast
4:55 AM 64.4 °F 60.8 °F 88% 29.96 in 7.0 mi Calm Calm - N/A   Scattered Clouds
5:15 AM 64.4 °F 62.6 °F 94% 29.96 in 7.0 mi Calm Calm - N/A   Scattered Clouds
5:35 AM 66.2 °F 62.6 °F 88% 29.97 in 7.0 mi Calm Calm - N/A   Mostly Cloudy
5:55 AM 66.2 °F 62.6 °F 88% 29.97 in 7.0 mi Calm Calm - N/A   Overcast
6:15 AM 66.2 °F 62.6 °F 88% 29.98 in 7.0 mi Calm Calm - N/A   Mostly Cloudy
6:35 AM 66.2 °F 64.4 °F 94% 29.99 in 7.0 mi Calm Calm - N/A   Mostly Cloudy
6:45 AM 64.4 °F 62.6 °F 94% 29.99 in 7.0 mi Calm Calm - N/A   Mostly Cloudy
7:45 AM 68.0 °F 66.2 °F 94% 29.99 in 8.0 mi Calm Calm - N/A   Mostly Cloudy
8:45 AM 69.8 °F 66.2 °F 88% 29.98 in 7.0 mi Calm Calm - N/A   Overcast
9:45 AM 75.2 °F 66.2 °F 73% 29.97 in 10.0 mi SSE 5.8 mph - N/A   Overcast
10:45 AM 75.2 °F 64.4 °F 69% 29.97 in 10.0 mi South 4.6 mph - N/A   Overcast
11:45 AM 75.2 °F 64.4 °F 69% 29.97 in 10.0 mi South 3.5 mph - N/A   Overcast
12:45 PM 77.0 °F 68.0 °F 74% 29.96 in 10.0 mi SSE 9.2 mph - N/A   Overcast
1:45 PM 75.2 °F 69.8 °F 83% 29.97 in 5.0 mi SE 8.1 mph 15.0 mph N/A Rain Light Rain
2:45 PM 77.0 °F 69.8 °F 78% 29.94 in 10.0 mi SE 9.2 mph - N/A   Mostly Cloudy
3:51 PM 78.8 °F 68.0 °F 69% 29.91 in 10.0 mi ESE 13.8 mph - N/A Thunderstorm Thunderstorm
4:45 PM 77.0 °F 66.2 °F 69% 29.93 in 10.0 mi SE 8.1 mph 17.3 mph N/A   Overcast
5:19 PM 75.2 °F 69.8 °F 83% 29.95 in 2.8 mi East 9.2 mph - N/A Rain Rain
5:35 PM 71.6 °F 68.0 °F 88% 29.95 in 0.5 mi SW 17.3 mph 24.2 mph N/A Rain , Thunderstorm Heavy Thunderstorms and Rain
5:45 PM 69.8 °F 68.0 °F 94% 29.95 in 1.2 mi South 6.9 mph 24.2 mph N/A Rain , Thunderstorm Thunderstorms and Rain
6:45 PM 69.8 °F 68.0 °F 94% 29.97 in 1.5 mi SE 4.6 mph - N/A Rain , Thunderstorm Thunderstorms and Rain
8:45 PM 68.0 °F 66.2 °F 94% 29.96 in 10.0 mi Calm Calm - N/A   Overcast
9:45 PM 69.8 °F 68.0 °F 94% 29.98 in 7.0 mi Calm Calm - N/A   Overcast
10:55 PM 71.6 °F 68.0 °F 88% 29.99 in 7.0 mi Calm Calm - N/A Rain Rain
11:15 PM 71.6 °F 68.0 °F 88% 29.99 in 4.0 mi Calm Calm - N/A Rain Rain
11:35 PM 71.6 °F 68.0 °F 88% 29.98 in 5.0 mi Calm Calm - 0.01 in Rain Rain
11:55 PM 71.6 °F 68.0 °F 88% 29.98 in 5.0 mi Calm Calm - N/A Rain Rain